period_start,C,m1,H,J0,J1,J2,J3,J4,J5,JA,JB,JC,JD,JJ,JK,JN,#
2016-04-19 00:04:30,0.04,0.10,0.00,13.59,18.15,22.41,15.17,49.79,1019.55,2072.10,3513.05,3192.48,3616.26,599.90,617.32,2.42,0000 0000 0000 0000 000000
2016-04-19 00:09:31,0.04,0.10,0.00,13.58,18.19,22.40,15.23,49.76,1019.56,2072.04,3511.96,3191.67,3615.19,600.23,617.45,2.47,0000 0000 0000 0000 000000
2016-04-19 00:14:32,0.04,0.10,0.00,13.66,18.22,22.35,15.19,49.68,1019.56,2072.00,3510.90,3190.88,3614.21,599.68,616.80,2.52,0000 0000 0000 0000 000000
2016-04-19 00:19:34,0.05,0.10,0.00,13.69,18.26,22.41,15.13,49.65,1019.56,2072.00,3509.63,3190.00,3613.23,599.89,617.08,2.58,0000 0000 0000 0000 000000
2016-04-19 00:24:35,0.05,0.11,0.00,13.66,18.29,22.46,15.24,49.77,1019.57,2071.99,3508.35,3189.10,3612.43,600.39,617.67,2.63,0000 0000 0000 0000 000000
2016-04-19 00:29:36,0.06,0.11,0.00,13.69,18.33,22.47,15.18,49.87,1019.58,2071.99,3507.00,3188.15,3611.30,599.68,616.81,2.68,0000 0000 0000 0000 000000
2016-04-19 00:34:37,0.05,0.11,0.00,13.78,18.36,22.59,15.10,49.75,1019.73,2071.96,3505.75,3187.28,3610.28,599.98,617.01,2.73,0000 0000 0000 0000 000000
2016-04-19 00:39:38,0.04,0.12,0.00,13.81,18.39,22.64,15.15,49.79,1019.93,2071.84,3504.69,3186.43,3609.25,600.23,617.33,2.78,0000 0000 0000 0000 000000
2016-04-19 00:44:40,0.02,0.12,0.00,13.79,18.43,22.58,15.21,49.80,1020.00,2071.41,3503.54,3185.63,3608.23,600.10,617.29,2.83,0000 0000 0000 0000 000000
2016-04-19 00:49:41,0.02,0.12,0.00,13.82,18.46,22.61,15.20,49.84,1020.03,2071.15,3502.32,3184.89,3607.26,600.03,617.19,2.88,0000 0000 0000 0000 000000
2016-04-19 00:54:42,0.04,0.12,0.00,13.91,18.50,22.64,15.10,49.81,1020.03,2071.05,3501.16,3183.97,3606.28,599.92,616.86,2.93,0000 0000 0000 0000 000000
2016-04-19 00:59:43,0.05,0.12,0.00,13.93,18.54,22.69,15.15,49.83,1020.03,2071.01,3499.85,3183.04,3605.16,599.83,616.81,2.98,0000 0000 0000 0000 000000
2016-04-19 01:04:45,0.05,0.13,0.00,13.91,18.57,22.76,15.18,49.77,1020.03,2070.99,3498.63,3182.10,3604.10,600.22,617.17,3.03,0000 0000 0000 0000 000000
2016-04-19 01:09:46,0.05,0.13,0.00,13.95,18.61,22.77,15.26,49.84,1020.03,2070.99,3497.40,3181.26,3603.11,600.11,617.05,3.08,0000 0000 0000 0000 000000
2016-04-19 01:14:47,0.05,0.13,0.00,14.06,18.64,22.69,15.15,49.69,1020.03,2070.97,3496.25,3180.40,3602.04,599.83,616.49,3.13,0000 0000 0000 0000 000000
2016-04-19 01:19:49,0.03,0.13,0.00,14.06,18.68,22.70,15.13,49.71,1020.04,2070.81,3494.97,3179.47,3600.93,600.08,616.66,3.18,0000 0000 0000 0000 000000
2016-04-19 01:24:50,0.01,0.13,0.00,14.06,18.72,22.77,15.15,49.79,1020.04,2070.29,3493.70,3178.57,3599.84,600.19,616.82,3.23,0000 0000 0000 0000 000000
2016-04-19 01:29:51,0.04,0.13,0.00,14.12,18.76,22.90,15.12,49.79,1020.04,2070.07,3492.47,3177.70,3598.81,599.85,616.32,3.28,0000 0000 0000 0000 000000
2016-04-19 01:34:52,0.04,0.14,0.00,14.20,18.80,22.87,15.09,49.73,1020.05,2070.02,3491.32,3176.83,3597.78,599.74,616.21,3.33,0000 0000 0000 0000 000000
2016-04-19 01:39:54,0.05,0.14,0.00,14.22,18.84,22.92,15.15,49.74,1020.04,2070.00,3490.09,3175.96,3596.70,600.07,616.42,3.38,0000 0000 0000 0000 000000
2016-04-19 01:44:56,0.06,0.14,0.00,14.25,18.88,22.97,15.14,49.85,1020.06,2069.98,3488.78,3175.00,3595.56,599.92,616.00,3.43,0000 0000 0000 0000 000000
2016-04-19 01:49:57,0.05,0.15,0.00,14.35,18.93,22.90,15.12,49.83,1020.20,2069.97,3487.61,3174.07,3594.43,600.07,616.20,3.48,0000 0000 0000 0000 000000
2016-04-19 01:54:59,0.01,0.15,0.00,14.41,18.98,22.98,15.13,49.88,1020.26,2069.58,3486.23,3173.06,3593.32,600.10,616.16,3.53,0000 0000 0000 0000 000000
2016-04-19 02:00:00,0.04,0.15,0.00,14.43,19.02,23.17,15.14,49.94,1020.43,2069.11,3484.75,3171.99,3592.07,599.96,616.03,3.58,0000 0000 0000 0000 000000
2016-04-19 02:05:01,0.05,0.15,0.00,14.46,19.07,23.19,15.18,49.86,1020.51,2069.02,3483.53,3171.06,3590.96,600.22,616.28,3.63,0000 0000 0000 0000 000000
2016-04-19 02:10:02,0.05,0.15,0.00,14.54,19.12,23.24,15.20,49.96,1020.52,2069.00,3482.20,3170.15,3589.83,600.23,616.11,3.68,0000 0000 0000 0000 000000
2016-04-19 02:15:03,0.07,0.16,0.00,14.61,19.17,23.30,15.05,49.91,1020.52,2068.99,3480.69,3169.06,3588.56,599.79,615.54,3.73,0000 0000 0000 0000 000000
2016-04-19 02:20:05,0.07,0.16,0.00,14.63,19.22,23.29,15.15,49.92,1020.52,2068.98,3479.09,3167.84,3587.02,599.98,615.67,3.78,0000 0000 0000 0000 000000
2016-04-19 02:25:06,0.04,0.16,0.00,14.65,19.27,23.32,15.16,50.01,1020.55,2068.70,3477.43,3166.53,3585.56,600.06,615.74,3.83,0000 0000 0000 0000 000000
2016-04-19 02:30:07,0.03,0.17,0.00,14.72,19.33,23.40,15.03,49.83,1020.62,2068.11,3475.74,3165.36,3584.18,600.00,615.59,3.88,0000 0000 0000 0000 000000
2016-04-19 02:35:09,0.05,0.17,0.00,14.82,19.37,23.44,15.09,49.89,1020.74,2068.01,3474.22,3164.24,3582.95,599.94,615.46,3.93,0000 0000 0000 0000 000000
2016-04-19 02:40:10,0.07,0.17,0.00,14.88,19.41,23.48,15.07,49.83,1020.84,2068.00,3472.69,3163.21,3581.74,599.89,615.26,3.98,0000 0000 0000 0000 000000
2016-04-19 02:45:11,0.06,0.18,0.00,14.89,19.45,23.55,15.12,49.86,1020.95,2067.99,3471.19,3162.04,3580.43,600.02,615.42,4.03,0000 0000 0000 0000 000000
2016-04-19 02:50:12,0.05,0.18,0.00,14.91,19.49,23.63,15.14,49.92,1020.99,2067.90,3469.69,3160.98,3579.20,600.13,615.54,4.08,0000 0000 0000 0000 000000
2016-04-19 02:55:13,0.02,0.18,0.00,14.93,19.52,23.70,15.14,49.82,1021.00,2067.53,3468.25,3159.97,3577.93,600.08,615.42,4.13,0000 0000 0000 0000 000000
2016-04-19 03:00:15,0.03,0.18,0.00,15.03,19.55,23.74,15.16,49.67,1021.01,2067.13,3466.79,3159.01,3576.79,600.19,615.36,4.18,0000 0000 0000 0000 000000
2016-04-19 03:05:16,0.05,0.18,0.00,15.10,19.58,23.79,15.10,49.68,1021.01,2067.04,3465.44,3158.02,3575.67,599.80,614.88,4.23,0000 0000 0000 0000 000000
2016-04-19 03:10:17,0.06,0.19,0.00,15.14,19.61,23.83,15.05,49.67,1021.01,2067.01,3463.84,3156.94,3574.45,599.64,614.62,4.28,0000 0000 0000 0000 000000
2016-04-19 03:15:19,0.07,0.19,0.00,15.18,19.64,23.89,15.13,49.63,1021.01,2067.00,3462.30,3155.83,3573.09,600.13,615.07,4.33,0000 0000 0000 0000 000000
2016-04-19 03:20:20,0.08,0.20,0.00,15.22,19.68,23.98,15.19,49.70,1021.01,2066.99,3460.64,3154.60,3571.65,600.06,614.85,4.38,0000 0000 0000 0000 000000
2016-04-19 03:25:21,0.06,0.20,0.00,15.27,19.71,24.06,15.07,49.58,1021.01,2066.94,3459.07,3153.51,3570.31,599.99,614.65,4.43,0000 0000 0000 0000 000000
2016-04-19 03:30:23,0.04,0.20,0.00,15.37,19.74,24.05,15.00,49.54,1021.01,2066.76,3457.63,3152.56,3569.10,599.90,614.32,4.48,0000 0000 0000 0000 000000
2016-04-19 03:35:24,0.02,0.20,0.00,15.41,19.78,24.09,15.06,49.70,1021.01,2066.26,3456.17,3151.51,3567.89,599.74,614.10,4.53,0000 0000 0000 0000 000000
2016-04-19 03:40:25,0.06,0.21,0.00,15.44,19.81,24.13,15.04,49.55,1021.01,2066.04,3454.58,3150.29,3566.42,600.21,614.50,4.58,0000 0000 0000 0000 000000
2016-04-19 03:45:27,0.06,0.21,0.00,15.48,19.85,24.20,15.10,49.77,1021.01,2066.00,3452.95,3149.13,3565.07,600.15,614.41,4.63,0000 0000 0000 0000 000000
2016-04-19 03:50:28,0.06,0.21,0.00,15.52,19.88,24.25,15.09,49.67,1021.03,2066.00,3451.50,3148.14,3563.85,599.97,614.10,4.68,0000 0000 0000 0000 000000
2016-04-19 03:55:29,0.06,0.22,0.00,15.58,19.92,24.29,15.16,49.55,1021.05,2065.99,3450.03,3147.10,3562.61,600.36,614.46,4.73,0000 0000 0000 0000 000000
2016-04-19 04:00:30,0.06,0.22,0.00,15.64,19.96,24.32,15.03,49.48,1021.08,2065.98,3448.54,3146.05,3561.40,599.41,613.46,4.78,0000 0000 0000 0000 000000
2016-04-19 04:05:31,0.04,0.22,0.00,15.68,20.00,24.36,15.07,49.53,1021.19,2065.90,3447.06,3145.01,3560.16,599.85,613.72,4.83,0000 0000 0000 0000 000000
2016-04-19 04:10:33,0.04,0.22,0.00,15.72,20.04,24.44,15.02,49.52,1021.30,2065.74,3445.76,3144.03,3559.03,599.85,613.75,4.88,0000 0000 0000 0000 000000
2016-04-19 04:15:34,0.01,0.23,0.00,15.77,20.08,24.41,15.02,49.58,1021.32,2065.20,3444.38,3143.02,3557.84,599.91,613.67,4.94,0000 0000 0000 0000 000000
2016-04-19 04:20:35,0.05,0.23,0.00,15.78,20.13,24.47,15.11,49.67,1021.45,2065.02,3442.94,3142.00,3556.58,600.09,613.98,4.99,0000 0000 0000 0000 000000
2016-04-19 04:25:36,0.06,0.23,0.00,15.79,20.17,24.49,15.14,49.63,1021.36,2065.00,3441.55,3140.95,3555.43,599.99,613.79,5.04,0000 0000 0000 0000 000000
2016-04-19 04:30:38,0.06,0.23,0.00,15.90,20.21,24.57,15.07,49.62,1021.40,2064.99,3440.10,3139.91,3554.08,599.97,613.57,5.09,0000 0000 0000 0000 000000
2016-04-19 04:35:39,0.06,0.24,0.00,15.93,20.25,24.62,14.99,49.62,1021.44,2064.98,3438.72,3138.95,3552.90,599.73,613.24,5.14,0000 0000 0000 0000 000000
2016-04-19 04:40:40,0.04,0.24,0.00,15.94,20.29,24.67,15.11,49.65,1021.49,2064.87,3437.48,3138.04,3551.86,600.10,613.65,5.19,0000 0000 0000 0000 000000
2016-04-19 04:45:41,0.01,0.24,0.00,15.96,20.33,24.66,15.09,49.50,1021.49,2064.42,3436.18,3137.12,3550.69,600.43,613.80,5.24,0000 0000 0000 0000 000000
2016-04-19 04:50:43,0.05,0.24,0.00,15.99,20.38,24.73,15.10,49.53,1021.50,2064.06,3434.84,3136.14,3549.52,600.30,613.72,5.29,0000 0000 0000 0000 000000
2016-04-19 04:55:44,0.05,0.25,0.00,16.00,20.42,24.79,15.07,49.53,1021.50,2064.01,3433.58,3135.21,3548.43,600.06,613.44,5.34,0000 0000 0000 0000 000000
2016-04-19 05:00:45,0.05,0.25,0.00,16.05,20.46,24.79,15.07,49.47,1021.50,2064.00,3432.27,3134.43,3547.28,599.78,613.09,5.39,0000 0000 0000 0000 000000
2016-04-19 05:05:46,0.06,0.25,0.00,16.13,20.50,24.84,15.09,49.42,1021.50,2064.00,3430.90,3133.46,3546.09,600.15,613.33,5.44,0000 0000 0000 0000 000000
2016-04-19 05:10:48,0.06,0.25,0.00,16.17,20.53,24.86,15.04,49.38,1021.50,2063.91,3429.58,3132.53,3544.94,599.51,612.54,5.49,0000 0000 0000 0000 000000
2016-04-19 05:15:49,-0.00,0.26,0.00,16.19,20.57,24.90,15.02,49.23,1021.50,2063.49,3428.31,3131.60,3543.80,599.92,612.87,5.54,0000 0000 0000 0000 000000
2016-04-19 05:20:50,0.04,0.26,0.00,16.20,20.61,24.94,15.08,49.25,1021.50,2063.09,3426.96,3130.67,3542.63,599.99,613.10,5.59,0000 0000 0000 0000 000000
2016-04-19 05:25:52,0.05,0.26,0.00,16.22,20.65,24.99,15.04,49.28,1021.50,2063.01,3425.64,3129.73,3541.58,600.21,613.09,5.64,0000 0000 0000 0000 000000
2016-04-19 05:30:53,0.05,0.26,0.00,16.24,20.68,25.00,15.10,49.46,1021.51,2063.00,3424.33,3128.76,3540.40,600.23,613.12,5.69,0000 0000 0000 0000 000000
2016-04-19 05:35:54,0.06,0.27,0.00,16.27,20.72,25.04,15.03,49.28,1021.51,2062.99,3422.87,3127.76,3539.27,599.92,612.71,5.74,0000 0000 0000 0000 000000
2016-04-19 05:40:56,0.05,0.27,0.00,16.29,20.76,25.08,15.04,49.17,1021.53,2062.96,3421.56,3126.86,3538.02,599.82,612.70,5.79,0000 0000 0000 0000 000000
2016-04-19 05:45:57,0.05,0.27,0.00,16.34,20.79,25.12,15.08,49.17,1021.64,2062.96,3420.29,3125.92,3536.98,599.75,612.49,5.84,0000 0000 0000 0000 000000
2016-04-19 05:50:59,0.03,0.27,0.00,16.45,20.82,25.12,14.99,49.08,1021.72,2062.71,3418.97,3124.99,3535.91,599.82,612.40,5.89,0000 0000 0000 0000 000000
2016-04-19 05:56:00,0.02,0.27,0.00,16.43,20.85,25.15,15.02,49.14,1021.75,2062.19,3417.64,3124.04,3534.84,599.93,612.56,5.94,0000 0000 0000 0000 000000
2016-04-19 06:01:01,0.05,0.28,0.00,16.45,20.88,25.21,15.02,49.14,1021.85,2062.03,3416.37,3123.07,3533.67,599.93,612.59,5.99,0000 0000 0000 0000 000000
2016-04-19 06:06:02,0.06,0.28,0.00,16.48,20.92,25.23,15.08,49.00,1021.92,2062.00,3414.98,3122.12,3532.52,599.75,612.37,6.04,0000 0000 0000 0000 000000
2016-04-19 06:11:03,0.06,0.28,0.00,16.50,20.95,25.21,15.05,49.09,1021.84,2062.00,3413.64,3121.14,3531.38,600.12,612.70,6.09,0000 0000 0000 0000 000000
2016-04-19 06:16:04,0.05,0.29,0.00,16.52,20.98,25.26,15.05,49.07,1021.72,2061.99,3412.36,3120.20,3530.27,600.05,612.52,6.14,0000 0000 0000 0000 000000
2016-04-19 06:21:05,0.05,0.29,0.00,16.52,21.01,25.27,15.06,49.19,1021.71,2061.99,3411.10,3119.35,3529.21,599.94,612.37,6.19,0000 0000 0000 0000 000000
2016-04-19 06:26:07,0.06,0.29,0.00,16.52,21.04,25.28,15.05,49.12,1021.72,2061.94,3409.79,3118.45,3528.09,600.01,612.45,6.24,0000 0000 0000 0000 000000
2016-04-19 06:31:08,0.02,0.29,0.00,16.56,21.07,25.29,15.05,49.13,1021.83,2061.64,3408.45,3117.47,3526.86,600.02,612.44,6.29,0000 0000 0000 0000 000000
2016-04-19 06:36:10,0.03,0.29,0.00,16.59,21.09,25.35,14.97,49.08,1021.96,2061.21,3407.08,3116.55,3525.78,599.79,612.19,6.34,0000 0000 0000 0000 000000
2016-04-19 06:41:11,0.05,0.30,0.00,16.62,21.12,25.35,15.02,49.11,1021.97,2061.05,3405.80,3115.65,3524.72,599.90,612.24,6.39,0000 0000 0000 0000 000000
2016-04-19 06:46:12,0.05,0.30,0.00,16.72,21.14,25.37,14.99,49.05,1021.94,2061.01,3404.50,3114.76,3523.66,600.09,612.13,6.44,0000 0000 0000 0000 000000
2016-04-19 06:51:13,0.05,0.30,0.00,16.75,21.17,25.44,15.01,48.93,1021.94,2061.00,3403.34,3113.87,3522.63,600.23,612.32,6.49,0000 0000 0000 0000 000000
2016-04-19 06:56:15,0.05,0.31,0.00,16.75,21.20,25.49,14.98,49.08,1021.95,2061.00,3402.10,3113.00,3521.63,599.67,611.78,6.54,0000 0000 0000 0000 000000
2016-04-19 07:01:16,0.05,0.31,0.00,16.77,21.22,25.51,14.96,49.14,1021.94,2061.00,3400.84,3112.09,3520.59,599.66,611.64,6.59,0000 0000 0000 0000 000000
2016-04-19 07:06:17,0.05,0.31,0.00,16.79,21.25,25.53,15.00,48.95,1021.97,2060.99,3399.57,3111.22,3519.57,599.99,611.99,6.64,0000 0000 0000 0000 000000
2016-04-19 07:11:19,0.05,0.31,0.00,16.81,21.27,25.54,15.04,49.08,1021.97,2060.97,3398.38,3110.33,3518.67,600.00,612.07,6.69,0000 0000 0000 0000 000000
2016-04-19 07:16:20,0.04,0.32,0.00,16.83,21.30,25.57,15.06,49.08,1021.98,2060.86,3397.12,3109.49,3517.61,600.13,611.92,6.74,0000 0000 0000 0000 000000
2016-04-19 07:21:21,0.01,0.32,0.00,16.84,21.32,25.61,15.08,49.10,1021.98,2060.35,3395.81,3108.59,3516.51,600.10,611.93,6.79,0000 0000 0000 0000 000000
2016-04-19 07:26:22,0.04,0.32,0.00,16.87,21.34,25.65,15.08,49.14,1021.99,2060.07,3394.50,3107.64,3515.46,599.96,611.81,6.84,0000 0000 0000 0000 000000
2016-04-19 07:31:24,0.04,0.32,0.00,16.88,21.37,25.66,15.01,49.06,1021.99,2060.02,3393.32,3106.88,3514.41,600.06,611.94,6.89,0000 0000 0000 0000 000000
2016-04-19 07:36:25,0.05,0.32,0.00,16.90,21.39,25.67,15.01,49.13,1021.99,2060.01,3392.11,3106.02,3513.39,600.07,611.79,6.94,0000 0000 0000 0000 000000
2016-04-19 07:41:27,0.09,0.33,0.00,16.92,21.41,25.73,15.09,49.19,1021.97,2060.00,3390.31,3104.70,3512.01,599.88,611.66,6.99,0000 0000 0000 0000 000000
2016-04-19 07:46:28,0.21,0.34,0.00,16.94,21.43,25.72,15.06,49.18,1021.97,2060.00,3385.77,3101.59,3508.52,599.89,611.59,7.04,0000 0000 0000 0000 000000
2016-04-19 07:51:29,0.07,0.34,0.00,16.97,21.45,25.71,15.02,49.17,1021.96,2059.99,3383.57,3100.08,3506.77,600.07,611.70,7.09,0000 0000 0000 0000 000000
2016-04-19 07:56:30,0.06,0.35,0.00,16.99,21.47,25.75,14.97,49.08,1021.98,2059.98,3381.96,3099.08,3505.57,599.86,611.42,7.14,0000 0000 0000 0000 000000
2016-04-19 08:01:32,0.06,0.35,0.00,17.01,21.49,25.76,15.02,49.06,1021.98,2059.99,3380.63,3098.14,3504.51,599.82,611.20,7.19,0000 0000 0000 0000 000000
2016-04-19 08:06:33,0.06,0.35,0.00,17.06,21.52,25.75,15.01,48.96,1021.97,2059.97,3379.26,3097.14,3503.40,599.87,611.31,7.24,0000 0000 0000 0000 000000
2016-04-19 08:11:34,0.05,0.36,0.00,17.08,21.54,25.81,14.99,49.02,1021.98,2059.82,3377.73,3096.16,3502.13,600.25,611.70,7.30,0000 0000 0000 0000 000000
2016-04-19 08:16:35,0.03,0.36,0.00,17.11,21.56,25.85,15.02,49.13,1021.99,2059.49,3376.48,3095.22,3501.01,599.78,611.16,7.35,0000 0000 0000 0000 000000
2016-04-19 08:21:37,0.04,0.36,0.00,17.12,21.58,25.91,15.02,49.08,1021.99,2059.18,3375.09,3094.30,3499.85,600.18,611.44,7.40,0000 0000 0000 0000 000000
2016-04-19 08:26:38,0.06,0.36,0.00,17.13,21.60,25.93,14.97,49.06,1021.99,2059.03,3373.70,3093.34,3498.73,599.84,611.13,7.45,0000 0000 0000 0000 000000
2016-04-19 08:31:39,0.06,0.36,0.00,17.16,21.62,25.90,15.01,49.08,1022.00,2059.02,3372.48,3092.46,3497.65,599.93,611.23,7.50,0000 0000 0000 0000 000000
2016-04-19 08:36:41,0.06,0.37,0.00,17.18,21.64,25.99,14.98,48.97,1021.99,2059.01,3371.04,3091.49,3496.59,599.77,610.91,7.55,0000 0000 0000 0000 000000
2016-04-19 08:41:42,0.06,0.37,0.00,17.16,21.66,26.01,15.06,49.10,1022.01,2059.00,3369.74,3090.62,3495.50,600.23,611.42,7.60,0000 0000 0000 0000 000000
2016-04-19 08:46:43,0.05,0.37,0.00,17.15,21.68,26.03,15.01,49.05,1022.02,2059.00,3368.42,3089.72,3494.35,599.84,611.16,7.65,0000 0000 0000 0000 000000
2016-04-19 08:51:45,0.05,0.38,0.00,17.15,21.69,26.08,14.97,49.04,1022.02,2058.99,3367.09,3088.79,3493.26,599.86,611.13,7.70,0000 0000 0000 0000 000000
2016-04-19 08:56:46,0.06,0.38,0.00,17.16,21.72,26.10,15.01,49.02,1022.02,2058.97,3365.76,3087.89,3492.12,599.82,611.17,7.75,0000 0000 0000 0000 000000
2016-04-19 09:01:47,0.05,0.38,0.00,17.15,21.73,26.03,15.01,48.97,1022.01,2058.97,3364.48,3086.94,3491.02,599.89,611.09,7.80,0000 0000 0000 0000 000000
2016-04-19 09:06:49,0.05,0.39,0.00,17.14,21.74,26.08,14.96,48.95,1022.09,2058.94,3363.13,3086.02,3489.96,599.68,611.03,7.85,0000 0000 0000 0000 000000
2016-04-19 09:11:50,0.06,0.39,0.00,17.15,21.77,26.09,15.02,49.11,1022.28,2058.88,3361.89,3085.14,3488.96,600.04,611.58,7.90,0000 0000 0000 0000 000000
2016-04-19 09:16:52,0.02,0.39,0.00,17.19,21.77,26.10,14.99,49.04,1022.25,2058.50,3360.58,3084.30,3487.93,600.10,611.38,7.95,0000 0000 0000 0000 000000
2016-04-19 09:21:53,0.05,0.39,0.00,17.20,21.78,26.10,15.08,49.02,1022.24,2058.32,3359.30,3083.42,3486.83,600.09,611.39,8.00,0000 0000 0000 0000 000000
2016-04-19 09:26:54,0.04,0.39,0.00,17.18,21.79,26.10,14.98,48.98,1022.25,2058.13,3357.96,3082.52,3485.80,599.84,611.16,8.05,0000 0000 0000 0000 000000
2016-04-19 09:31:56,0.05,0.40,0.00,17.17,21.79,26.09,15.02,49.24,1022.26,2058.10,3356.75,3081.73,3484.83,599.93,611.25,8.10,0000 0000 0000 0000 000000
2016-04-19 09:36:57,0.05,0.40,0.00,17.15,21.80,26.02,15.05,49.33,1022.21,2058.08,3355.55,3080.93,3483.83,600.23,611.68,8.15,0000 0000 0000 0000 000000
2016-04-19 09:41:58,0.05,0.40,0.00,17.14,21.81,25.90,15.02,49.13,1022.40,2058.06,3354.24,3080.05,3482.82,599.96,611.48,8.20,0000 0000 0000 0000 000000
2016-04-19 09:46:59,0.05,0.41,0.00,17.12,21.82,25.81,14.97,49.21,1022.40,2058.04,3352.95,3079.14,3481.83,600.04,611.65,8.25,0000 0000 0000 0000 000000
2016-04-19 09:52:01,0.06,0.41,0.00,17.12,21.82,25.84,15.00,49.17,1022.46,2058.01,3351.71,3078.37,3480.76,600.17,611.71,8.30,0000 0000 0000 0000 000000
2016-04-19 09:57:02,0.05,0.41,0.00,17.13,21.82,25.85,14.96,49.11,1022.47,2058.01,3350.46,3077.49,3479.79,599.92,611.63,8.35,0000 0000 0000 0000 000000
2016-04-19 10:02:03,0.05,0.41,0.00,17.14,21.82,25.83,14.99,48.99,1022.48,2058.03,3349.25,3076.74,3478.81,599.83,611.39,8.40,0000 0000 0000 0000 000000
2016-04-19 10:07:04,0.05,0.42,0.00,17.14,21.82,25.81,15.03,49.06,1022.48,2058.01,3347.95,3075.89,3477.77,599.93,611.28,8.45,0000 0000 0000 0000 000000
2016-04-19 10:12:06,0.05,0.42,0.00,17.20,21.82,25.77,15.01,49.10,1022.48,2058.01,3346.78,3075.04,3476.83,600.00,611.55,8.50,0000 0000 0000 0000 000000
2016-04-19 10:17:07,0.06,0.42,0.00,17.20,21.82,25.79,15.02,49.21,1022.48,2058.01,3345.47,3074.12,3475.74,599.81,611.23,8.55,0000 0000 0000 0000 000000
2016-04-19 10:22:08,0.05,0.43,0.00,17.19,21.82,25.80,15.02,49.17,1022.48,2058.01,3344.24,3073.28,3474.73,600.05,611.49,8.60,0000 0000 0000 0000 000000
2016-04-19 10:27:10,0.06,0.43,0.00,17.19,21.83,25.83,14.97,49.14,1022.48,2058.00,3342.88,3072.46,3473.70,599.77,611.18,8.65,0000 0000 0000 0000 000000
2016-04-19 10:32:11,0.05,0.43,0.00,17.17,21.84,25.84,14.97,49.10,1022.48,2058.00,3341.66,3071.60,3472.73,599.87,611.30,8.70,0000 0000 0000 0000 000000
2016-04-19 10:37:12,0.05,0.43,0.00,17.17,21.84,25.87,15.01,49.10,1022.48,2058.00,3340.40,3070.81,3471.67,599.67,611.23,8.75,0000 0000 0000 0000 000000
2016-04-19 10:42:13,0.04,0.44,0.00,17.16,21.84,25.88,15.04,49.17,1022.48,2058.00,3339.16,3070.01,3470.67,599.91,611.45,8.80,0000 0000 0000 0000 000000
2016-04-19 10:47:14,0.05,0.44,0.00,17.14,21.85,25.93,15.01,49.35,1022.48,2058.00,3337.95,3069.16,3469.77,600.04,611.58,8.85,0000 0000 0000 0000 000000
2016-04-19 10:52:16,0.06,0.44,0.00,17.16,21.86,25.97,15.03,49.34,1022.48,2058.00,3336.73,3068.35,3468.79,599.55,611.13,8.90,0000 0000 0000 0000 000000
2016-04-19 10:57:17,0.05,0.45,0.00,17.25,21.87,26.04,15.03,49.15,1022.49,2058.00,3335.49,3067.53,3467.74,599.99,611.31,8.95,0000 0000 0000 0000 000000
2016-04-19 11:02:18,0.05,0.45,0.00,17.31,21.87,26.09,15.03,49.14,1022.50,2058.00,3334.23,3066.70,3466.71,600.36,611.53,9.00,0000 0000 0000 0000 000000
2016-04-19 11:07:20,0.03,0.45,0.00,17.37,21.87,26.15,15.02,49.28,1022.50,2058.00,3333.02,3065.95,3465.85,600.27,611.44,9.05,0000 0000 0000 0000 000000
2016-04-19 11:12:21,0.06,0.45,0.00,17.42,21.87,26.13,14.98,49.23,1022.51,2057.98,3331.81,3065.08,3464.88,599.61,610.55,9.10,0000 0000 0000 0000 000000
2016-04-19 11:17:22,0.05,0.46,0.00,17.44,21.87,26.18,14.98,49.34,1022.51,2057.99,3330.70,3064.25,3463.96,599.89,610.78,9.15,0000 0000 0000 0000 000000
2016-04-19 11:22:24,0.05,0.46,0.00,17.39,21.87,26.20,14.99,49.29,1022.51,2057.98,3329.54,3063.61,3463.02,599.75,610.81,9.20,0000 0000 0000 0000 000000
2016-04-19 11:27:25,0.04,0.46,0.00,17.29,21.87,26.25,15.06,49.24,1022.50,2057.98,3328.51,3062.94,3462.15,600.25,611.56,9.25,0000 0000 0000 0000 000000
2016-04-19 11:32:26,0.05,0.46,0.00,17.25,21.86,26.22,15.05,49.19,1022.52,2057.98,3327.50,3062.12,3461.39,599.96,611.33,9.30,0000 0000 0000 0000 000000
2016-04-19 11:37:27,0.04,0.47,0.00,17.11,21.85,26.16,15.04,49.16,1022.57,2057.98,3326.55,3061.47,3460.65,600.12,611.74,9.35,0000 0000 0000 0000 000000
2016-04-19 11:42:29,0.03,0.47,0.00,16.97,21.84,26.00,15.02,49.18,1022.55,2057.98,3325.50,3060.92,3459.87,600.15,612.12,9.40,0000 0000 0000 0000 000000
2016-04-19 11:47:30,0.04,0.47,0.00,16.88,21.83,25.99,15.09,49.25,1022.53,2057.99,3324.57,3060.11,3459.05,600.23,612.39,9.45,0000 0000 0000 0000 000000
2016-04-19 11:52:31,0.03,0.47,0.00,16.78,21.82,25.92,15.04,49.25,1022.53,2057.99,3323.65,3059.77,3458.33,599.97,612.27,9.50,0000 0000 0000 0000 000000
2016-04-19 11:57:32,0.03,0.48,0.00,16.70,21.79,25.97,15.12,49.23,1022.50,2057.99,3322.69,3059.04,3457.72,600.49,613.02,9.55,0000 0000 0000 0000 000000
2016-04-19 12:02:34,0.03,0.48,0.00,16.69,21.78,25.82,15.00,49.14,1022.49,2057.99,3321.84,3058.60,3457.02,599.90,612.42,9.61,0000 0000 0000 0000 000000
2016-04-19 12:07:35,0.03,0.48,0.00,16.63,21.76,25.84,15.15,49.20,1022.48,2058.00,3321.00,3058.02,3456.34,600.40,613.16,9.66,0000 0000 0000 0000 000000
2016-04-19 12:12:37,0.04,0.48,0.00,16.57,21.73,25.84,15.03,49.20,1022.48,2058.02,3320.14,3057.44,3455.95,600.04,612.89,9.71,0000 0000 0000 0000 000000
2016-04-19 12:17:38,0.04,0.48,0.00,16.51,21.71,25.75,15.12,49.20,1022.48,2058.08,3319.30,3057.00,3455.14,600.44,613.35,9.76,0000 0000 0000 0000 000000
2016-04-19 12:22:40,0.06,0.49,0.00,16.44,21.68,25.85,15.09,49.04,1022.48,2058.20,3318.34,3056.36,3454.51,600.02,613.11,9.81,0000 0000 0000 0000 000000
2016-04-19 12:27:41,0.03,0.49,0.00,16.37,21.65,25.84,15.08,49.06,1022.46,2058.46,3317.55,3055.99,3453.98,599.80,613.03,9.86,0000 0000 0000 0000 000000
2016-04-19 12:32:42,0.09,0.49,0.00,16.37,21.62,25.73,15.05,49.01,1022.40,2058.80,3316.64,3055.44,3453.23,600.15,613.21,9.91,0000 0000 0000 0000 000000
2016-04-19 12:37:43,0.02,0.49,0.00,16.34,21.59,25.60,15.11,48.99,1022.39,2058.97,3315.87,3055.00,3452.92,600.24,613.46,9.96,0000 0000 0000 0000 000000
2016-04-19 12:42:44,0.05,0.50,0.00,16.30,21.55,25.67,15.06,48.90,1022.37,2058.99,3315.03,3054.47,3452.10,600.40,613.69,10.01,0000 0000 0000 0000 000000
2016-04-19 12:47:46,0.03,0.50,0.00,16.25,21.52,25.59,15.09,49.13,1022.25,2058.99,3314.14,3054.00,3451.70,600.13,613.45,10.06,0000 0000 0000 0000 000000
2016-04-19 12:52:47,0.03,0.50,0.00,16.17,21.48,25.52,15.10,49.20,1022.19,2058.99,3313.33,3053.62,3451.03,600.03,613.64,10.11,0000 0000 0000 0000 000000
2016-04-19 12:57:48,0.03,0.50,0.00,16.16,21.45,25.45,15.12,49.24,1022.15,2059.02,3312.50,3053.02,3450.48,600.02,613.47,10.16,0000 0000 0000 0000 000000
2016-04-19 13:02:50,0.03,0.50,0.00,16.17,21.42,25.40,15.11,49.18,1022.18,2059.14,3311.88,3052.76,3450.00,600.16,613.62,10.21,0000 0000 0000 0000 000000